EW5824 Weather Reports


Display with metric or nautical units.
time (UTC)temp
F
wind
direction
speed
MPH
gust
MPH
rain 1hr
in
rain 24hr
in
rain mn
in
humidity
%
barometer
mb
20260505124330 37 344 5.0 14.0 0.05 0.20 0.06 87 1014.6
20260505123831 37 44 5.0 11.0 0.06 0.20 0.06 87 1014.4
20260505123313 38 26 5.0 9.0 0.05 0.19 0.05 86 1014.2
20260505122816 38 358 5.0 11.0 0.05 0.19 0.05 86 1014.3
20260505122318 38 353 4.0 10.0 0.04 0.18 0.04 86 1014.1
20260505121821 38 9 4.0 10.0 0.04 0.18 0.04 87 1014.2
20260505121324 38 33 5.0 11.0 0.04 0.18 0.04 87 1014.1
20260505120844 39 79 6.0 10.0 0.03 0.17 0.03 87 1014.0
20260505120323 39 59 3.0 11.0 0.02 0.16 0.02 87 1013.8
20260505115826 39 45 3.0 11.0 0.02 0.16 0.02 87 1013.8
20260505115344 39 88 4.0 11.0 0.02 0.16 0.02 87 1013.8
20260505114825 39 22 5.0 14.0 0.01 0.15 0.01 87 1013.7
20260505114325 40 49 6.0 14.0 0.01 0.15 0.01 87 1013.6
20260505113828 40 55 6.0 14.0 0.00 0.14 0.00 87 1013.5
20260505113314 40 54 3.0 13.0 0.00 0.14 0.00 87 1013.5
20260505112815 41 11 5.0 13.0 0.00 0.14 0.00 87 1013.5
20260505112316 41 49 6.0 12.0 0.00 0.14 0.00 87 1013.4
20260505111814 42 35 4.0 9.0 0.00 0.14 0.00 87 1013.2
20260505110845 42 95 1.0 9.0 0.00 0.14 0.00 87 1012.9
20260505110324 42 111 3.0 9.0 0.00 0.14 0.00 87 1012.9
20260505101818 44 101 3.0 9.0 0.00 0.14 0.00 87 1012.2
20260505101320 44 75 2.0 8.0 0.00 0.14 0.00 87 1012.1
20260505100823 45 63 3.0 10.0 0.00 0.14 0.00 87 1012.0
20260505100324 45 49 2.0 10.0 0.00 0.14 0.00 87 1012.0
20260505095827 45 60 3.0 8.0 0.00 0.14 0.00 87 1011.9
20260505095330 45 86 2.0 6.0 0.00 0.14 0.00 86 1011.8
20260505094852 45 89 2.0 7.0 0.00 0.14 0.00 86 1011.9
20260505094313 46 69 2.0 7.0 0.00 0.14 0.00 86 1011.9
20260505093816 46 69 2.0 7.0 0.00 0.14 0.00 86 1012.0
20260505093319 46 122 3.0 7.0 0.00 0.14 0.00 85 1011.9
20260505092821 46 107 2.0 5.0 0.00 0.14 0.00 85 1012.0
20260505092323 46 111 2.0 6.0 0.00 0.14 0.00 85 1012.0
20260505091825 46 117 2.0 6.0 0.00 0.14 0.00 86 1011.9
20260505091326 46 101 2.0 6.0 0.00 0.14 0.00 86 1011.8
20260505090828 46 77 0.0 5.0 0.00 0.14 0.00 86 1011.9
20260505090328 46 77 2.0 5.0 0.00 0.14 0.00 86 1011.9
20260505085830 46 69 1.0 5.0 0.00 0.14 0.00 86 1011.9
20260505085352 47 67 2.0 5.0 0.00 0.14 0.00 86 1012.0
20260505084814 47 35 2.0 5.0 0.00 0.14 0.00 86 1012.1
20260505084315 47 32 2.0 4.0 0.00 0.14 0.00 87 1012.1
20260505083817 47 38 3.0 4.0 0.00 0.14 0.00 87 1012.0
20260505083317 47 167 2.0 3.0 0.00 0.14 0.00 87 1012.1
20260505082820 47 175 1.0 2.0 0.00 0.14 0.00 87 1012.1
20260505082323 47 175 0.0 2.0 0.00 0.14 0.00 87 1012.2
20260505081826 47 175 0.0 2.0 0.00 0.14 0.00 87 1012.2
20260505081349 47 175 1.0 2.0 0.00 0.14 0.00 87 1012.2
20260505080828 47 175 0.0 2.0 0.00 0.14 0.00 87 1012.2
20260505080332 47 175 1.0 2.0 0.00 0.14 0.00 87 1012.1
20260505075836 47 175 0.0 2.0 0.00 0.14 0.00 87 1012.1
20260505075336 47 175 0.0 0.0 0.00 0.14 0.00 86 1012.2
20260505074816 47 175 0.0 2.0 0.00 0.14 0.00 86 1012.2
20260505074317 47 175 1.0 2.0 0.00 0.14 0.00 86 1012.1
20260505073838 47 175 1.0 2.0 0.00 0.14 0.00 86 1012.3
20260505073317 47 175 1.0 2.0 0.00 0.14 0.00 86 1012.5
20260505072820 47 175 1.0 2.0 0.00 0.14 0.00 86 1012.5
20260505072323 47 175 1.0 3.0 0.00 0.14 0.00 86 1012.5
20260505071826 47 175 1.0 4.0 0.00 0.14 0.00 87 1012.5
20260505071328 47 175 1.0 4.0 0.00 0.14 0.00 87 1012.6
20260505070829 47 178 3.0 4.0 0.00 0.14 0.00 87 1012.7
20260505070350 48 179 2.0 4.0 0.00 0.14 0.00 86 1012.6
20260505065813 48 202 2.0 4.0 0.00 0.14 0.00 85 1012.5
20260505065314 48 211 2.0 4.0 0.00 0.14 0.00 85 1012.7
20260505064817 48 217 1.0 3.0 0.00 0.14 0.00 85 1012.7
20260505064319 48 220 1.0 2.0 0.00 0.14 0.00 85 1012.7
20260505063821 48 220 0.0 1.0 0.00 0.14 0.00 85 1012.7
20260505063336 48 220 0.0 2.0 0.00 0.14 0.00 85 1012.7
20260505062818 48 220 1.0 3.0 0.00 0.14 0.00 85 1012.7
20260505062319 48 220 1.0 3.0 0.00 0.14 0.00 85 1012.7
20260505061821 48 220 1.0 3.0 0.00 0.14 0.00 85 1012.7
20260505061323 48 220 1.0 3.0 0.00 0.14 0.00 85 1012.8
20260505060823 48 220 0.0 3.0 0.00 0.14 0.00 85 1012.9
20260505060324 48 221 1.0 3.0 0.01 0.14 0.00 85 1012.8
20260505055821 47 221 1.0 3.0 0.01 0.14 0.14 85 1012.9
20260505055324 47 222 1.0 3.0 0.01 0.14 0.14 85 1012.8
20260505054826 47 223 1.0 4.0 0.01 0.14 0.14 85 1012.8
20260505054328 47 223 1.0 4.0 0.01 0.14 0.14 85 1012.5
20260505053831 47 224 1.0 3.0 0.01 0.14 0.14 85 1012.5
20260505053314 48 225 0.0 3.0 0.01 0.14 0.14 85 1012.7
20260505052817 48 226 0.0 4.0 0.02 0.14 0.14 85 1012.7
20260505052317 48 226 2.0 3.0 0.02 0.14 0.14 85 1012.8
20260505051839 48 227 1.0 4.0 0.02 0.14 0.14 85 1012.7
20260505051320 48 229 2.0 4.0 0.02 0.14 0.14 85 1013.0
20260505050823 48 236 1.0 3.0 0.02 0.14 0.14 85 1013.0
20260505050324 47 236 2.0 3.0 0.02 0.13 0.13 85 1013.0
20260505041318 48 279 3.0 9.0 0.05 0.12 0.12 85 1013.3
20260505040819 48 269 3.0 10.0 0.05 0.12 0.12 85 1013.2
20260505040340 49 275 3.0 12.0 0.04 0.11 0.11 84 1013.1
20260505035821 49 268 3.0 14.0 0.03 0.10 0.10 82 1013.0
20260505035323 51 297 5.0 14.0 0.01 0.08 0.08 78 1013.0
20260505034823 52 291 5.0 11.0 0.00 0.07 0.07 73 1012.9
20260505034323 52 301 1.0 7.0 0.00 0.07 0.07 70 1012.6
20260505033826 52 282 3.0 7.0 0.00 0.07 0.07 68 1012.7
20260505033327 52 288 1.0 7.0 0.00 0.07 0.07 69 1012.6
20260505032828 52 319 0.0 4.0 0.00 0.07 0.07 68 1012.5
20260505032330 52 320 2.0 4.0 0.00 0.07 0.07 69 1012.3
20260505031831 52 316 0.0 2.0 0.00 0.07 0.07 69 1012.1
20260505031313 52 316 1.0 2.0 0.00 0.07 0.07 68 1012.1
20260505030816 52 316 0.0 4.0 0.00 0.07 0.07 69 1012.0
20260505030338 52 316 1.0 5.0 0.00 0.07 0.07 68 1011.8
20260505025819 52 315 0.0 5.0 0.00 0.07 0.07 68 1011.7
20260505025341 52 32 1.0 6.0 0.00 0.07 0.07 69 1011.7
20260505024843 52 32 2.0 6.0 0.00 0.07 0.07 69 1011.6
20260505024345 52 26 2.0 4.0 0.00 0.07 0.07 69 1011.4
20260505023825 52 50 1.0 4.0 0.00 0.07 0.07 70 1011.4
20260505023326 52 26 1.0 3.0 0.00 0.07 0.07 69 1011.4
20260505022829 52 26 0.0 3.0 0.00 0.07 0.07 69 1011.5
20260505022330 52 27 1.0 4.0 0.00 0.07 0.07 70 1011.6
20260505021852 52 26 2.0 6.0 0.01 0.07 0.07 68 1011.3
20260505021331 52 26 3.0 6.0 0.01 0.07 0.07 67 1011.3
20260505020814 52 44 3.0 6.0 0.01 0.07 0.07 69 1011.4
20260505020337 52 29 0.0 6.0 0.01 0.07 0.07 71 1011.6
20260505015323 53 11 2.0 6.0 0.03 0.07 0.07 69 1011.2
20260505014825 53 42 3.0 12.0 0.04 0.07 0.07 67 1011.0
20260505014327 53 42 3.0 12.0 0.05 0.07 0.07 66 1010.9
20260505013830 53 341 3.0 9.0 0.06 0.07 0.07 66 1010.8
20260505013331 52 36 3.0 9.0 0.06 0.07 0.07 69 1010.7
20260505012813 52 58 1.0 4.0 0.06 0.07 0.07 72 1010.8
20260505012316 52 59 1.0 4.0 0.06 0.07 0.07 72 1010.9
20260505011818 52 22 2.0 5.0 0.05 0.06 0.06 71 1011.1
20260505011321 52 13 2.0 5.0 0.05 0.06 0.06 69 1011.1
20260505010823 53 3 3.0 10.0 0.05 0.06 0.06 66 1011.1
20260505010326 53 11 3.0 11.0 0.05 0.06 0.06 61 1011.3
20260505005827 54 332 3.0 11.0 0.04 0.05 0.05 61 1011.3
20260505005328 54 322 4.0 11.0 0.03 0.04 0.04 63 1011.4
20260505004830 54 315 4.0 10.0 0.03 0.03 0.03 60 1011.3
20260505004331 55 287 5.0 14.0 0.02 0.02 0.02 57 1011.2
20260505003852 57 269 6.0 14.0 0.01 0.01 0.01 53 1011.0
20260505003313 58 302 7.0 14.0 0.01 0.01 0.01 48 1010.8
20260505002816 58 273 6.0 14.0 0.01 0.01 0.01 46 1010.8
20260505002317 59 336 4.0 12.0 0.01 0.01 0.01 49 1010.6
20260505001836 58 335 7.0 12.0 0.01 0.01 0.01 46 1010.5
20260505001317 58 92 6.0 11.0 0.01 0.01 0.01 48 1010.6
20260505000820 57 348 4.0 12.0 0.01 0.01 0.01 50 1010.4
20260505000321 57 3 4.0 12.0 0.01 0.01 0.01 51 1010.3
20260504235822 57 120 1.0 13.0 0.01 0.01 0.01 53 1010.2
20260504235322 58 102 6.0 19.0 0.01 0.01 0.01 49 1010.4
20260504234824 60 73 7.0 20.0 0.00 0.00 0.00 42 1010.5
20260504234327 62 358 12.0 20.0 0.00 0.00 0.00 38 1010.3
20260504233828 63 358 7.0 15.0 0.00 0.00 0.00 33 1010.1
20260504233350 63 358 7.0 15.0 0.00 0.00 0.00 33 1009.9
20260504232831 63 358 5.0 13.0 0.00 0.00 0.00 33 1009.8
20260504232332 63 358 7.0 16.0 0.00 0.00 0.00 32 1009.8
20260504231834 63 358 9.0 16.0 0.00 0.00 0.00 32 1009.8
20260504231314 64 358 6.0 19.0 0.00 0.00 0.00 32 1009.7
20260504230837 64 358 8.0 19.0 0.00 0.00 0.00 32 1009.6
20260504230319 64 358 8.0 18.0 0.00 0.00 0.00 32 1009.4
20260504225819 64 358 8.0 16.0 0.00 0.00 0.00 31 1009.4
20260504225322 64 358 5.0 13.0 0.00 0.00 0.00 31 1009.2
20260504224825 64 358 5.0 17.0 0.00 0.00 0.00 31 1009.3
20260504224325 64 358 5.0 17.0 0.00 0.00 0.00 32 1009.2
20260504223827 64 358 4.0 15.0 0.00 0.00 0.00 32 1009.2
20260504223328 64 358 7.0 17.0 0.00 0.00 0.00 31 1009.1
20260504222850 64 358 8.0 17.0 0.00 0.00 0.00 31 1009.1
20260504222332 64 358 6.0 17.0 0.00 0.00 0.00 31 1009.2
20260504221813 64 358 9.0 18.0 0.00 0.00 0.00 31 1009.0
20260504221316 64 358 9.0 18.0 0.00 0.00 0.00 30 1009.0
20260504220818 65 358 11.0 18.0 0.00 0.00 0.00 30 1008.9
20260504220320 65 358 9.0 17.0 0.00 0.00 0.00 29 1008.6
20260504215822 66 358 9.0 15.0 0.00 0.00 0.00 28 1008.5
20260504215324 67 358 6.0 13.0 0.00 0.00 0.00 24 1008.4
20260504214827 68 358 5.0 16.0 0.00 0.00 0.00 24 1008.4
20260504214329 68 358 8.0 16.0 0.00 0.00 0.00 23 1008.5
20260504213831 69 358 4.0 10.0 0.00 0.00 0.00 24 1008.6
20260504213331 69 358 4.0 9.0 0.00 0.00 0.00 23 1008.7
20260504212813 70 336 6.0 9.0 0.00 0.00 0.00 22 1008.8
20260504212315 70 358 4.0 10.0 0.00 0.00 0.00 22 1008.8
20260504211816 70 8 4.0 12.0 0.00 0.00 0.00 22 1008.9
20260504211318 69 358 6.0 12.0 0.00 0.00 0.00 23 1008.9
20260504210819 68 358 5.0 12.0 0.00 0.00 0.00 24 1009.0
20260504210321 68 358 4.0 12.0 0.00 0.00 0.00 24 1008.9
20260504205823 68 358 8.0 12.0 0.00 0.00 0.00 23 1009.0
20260504205322 68 358 4.0 10.0 0.00 0.00 0.00 24 1009.0
20260504204844 68 358 6.0 10.0 0.00 0.00 0.00 23 1009.1
20260504204326 68 358 2.0 10.0 0.00 0.00 0.00 24 1009.2
20260504203826 68 358 3.0 10.0 0.00 0.00 0.00 24 1009.2
20260504203348 68 358 4.0 10.0 0.00 0.00 0.00 24 1009.2
20260504202828 68 358 2.0 10.0 0.00 0.00 0.00 25 1009.2
20260504202329 68 358 3.0 10.0 0.00 0.00 0.00 26 1009.3
20260504201829 68 358 5.0 10.0 0.00 0.00 0.00 24 1009.2
20260504201333 68 358 4.0 9.0 0.00 0.00 0.00 23 1009.3
20260504200834 68 358 3.0 8.0 0.00 0.00 0.00 24 1009.2
20260504200314 67 358 3.0 8.0 0.00 0.00 0.00 24 1009.2
20260504195816 67 358 2.0 6.0 0.00 0.00 0.00 24 1009.3
20260504195339 67 358 3.0 10.0 0.00 0.00 0.00 24 1009.4
20260504194841 67 358 5.0 10.0 0.00 0.00 0.00 25 1009.5
20260504194340 66 358 3.0 9.0 0.00 0.00 0.00 25 1009.4
20260504193842 66 358 4.0 10.0 0.00 0.00 0.00 25 1009.4
20260504193322 65 358 1.0 13.0 0.00 0.00 0.00 26 1009.4
20260504192822 65 358 2.0 10.0 0.00 0.00 0.00 27 1009.9
20260504192323 65 358 5.0 21.0 0.00 0.00 0.00 27 1009.9
20260504191826 66 358 10.0 21.0 0.00 0.00 0.00 27 1009.8
20260504191347 66 358 10.0 19.0 0.00 0.00 0.00 24 1009.8
20260504190849 66 358 11.0 19.0 0.00 0.00 0.00 23 1009.8
20260504190327 67 358 9.0 18.0 0.00 0.00 0.00 23 1009.7
20260504185830 68 358 4.0 9.0 0.00 0.00 0.00 22 1009.6
20260504185313 69 358 2.0 8.0 0.00 0.00 0.00 22 1009.5
20260504184816 69 358 3.0 9.0 0.00 0.00 0.00 23 1009.4
20260504184320 69 358 2.0 10.0 0.00 0.00 0.00 22 1009.4
20260504183824 70 358 4.0 8.0 0.00 0.00 0.00 22 1009.4
20260504183328 70 358 3.0 8.0 0.00 0.00 0.00 22 1009.4
20260504182831 70 288 3.0 8.0 0.00 0.00 0.00 23 1009.4
20260504182313 70 288 3.0 9.0 0.00 0.00 0.00 22 1009.4
20260504181817 70 304 2.0 8.0 0.00 0.00 0.00 23 1009.4
20260504181319 70 287 3.0 11.0 0.00 0.00 0.00 22 1009.4
20260504180821 70 314 4.0 13.0 0.00 0.00 0.00 21 1009.6
20260504180324 70 349 5.0 14.0 0.00 0.00 0.00 21 1009.5
20260504175827 71 273 5.0 14.0 0.00 0.00 0.00 22 1009.5
20260504175332 71 248 4.0 12.0 0.00 0.00 0.00 20 1009.6
20260504174834 71 302 4.0 12.0 0.00 0.00 0.00 21 1009.8
20260504174316 71 358 4.0 9.0 0.00 0.00 0.00 19 1009.8
20260504173818 71 318 5.0 12.0 0.00 0.00 0.00 20 1009.9
20260504173342 71 256 4.0 12.0 0.00 0.00 0.00 22 1010.0
20260504172824 70 250 4.0 13.0 0.00 0.00 0.00 22 1010.0
20260504172342 70 244 4.0 13.0 0.00 0.00 0.00 23 1010.1
20260504171825 70 311 4.0 10.0 0.00 0.00 0.00 22 1010.0
20260504171328 70 315 3.0 13.0 0.00 0.00 0.00 23 1010.1
20260504170848 70 296 7.0 13.0 0.00 0.00 0.00 22 1010.2
20260504170349 71 295 6.0 12.0 0.00 0.00 0.00 22 1010.2
20260504160331 68 276 6.0 13.0 0.00 0.00 0.00 23 1010.7
20260504150814 64 230 3.0 7.0 0.00 0.00 0.00 27 1011.0
20260504150336 63 233 3.0 8.0 0.00 0.00 0.00 28 1011.0
20260504140824 57 358 6.0 10.0 0.00 0.00 0.00 35 1011.1
20260504140326 56 358 6.0 9.0 0.00 0.00 0.00 35 1011.1
20260504130324 50 200 5.0 9.0 0.00 0.00 0.00 44 1010.7